Regional Weather Roundup
Issued by NWS

Home | Current Version | Previous Version | Text Only | Print | Product List | Glossary On
Versions: 1 2 3 4 5 6 7 8 9 10 11 12 13 14 15 16 17 18 19 20 21 22 23 24 25 26 27 28 29 30 31 32 33 34 35 36 37 38 39 40 41 42 43 44 45 46 47 48 49 50
000
ASUS46 KPQR 281710
RWROR

OREGON REGIONAL WEATHER ROUNDUP
NATIONAL WEATHER SERVICE PORTLAND OR
1000 AM PDT SAT MAR 28 2015

NOTE: "FAIR" INDICATES FEW OR NO CLOUDS BELOW 12,000 FEET WITH
NO SIGNIFICANT WEATHER AND/OR OBSTRUCTIONS TO VISIBILITY.

ORZ001>013-281800-
NORTHWEST OREGON


CITY           SKY/WX    TMP DP  RH WIND       PRES   REMARKS
ASTORIA        CLOUDY    53  44  71 SW8       30.35R
NEWPORT        LGT RAIN  52  48  87 SW5       30.43R
PORTLAND       PTSUNNY   54  46  74 S15       30.38S
VANCOUVER WA   MOSUNNY   54  45  71 S6        30.38S
SCAPPOOSE      MOSUNNY   53  46  77 E6        30.37S
HILLSBORO      CLOUDY    54  45  71 SW12      30.36F
AURORA         PTSUNNY   51  45  79 S9        30.40S
MCMINNVILLE    PTSUNNY   52  47  83 S7        30.39S
SALEM          PTSUNNY   53  46  77 S10       30.38F
CORVALLIS      MOSUNNY   54  46  76 S9        30.42S
EUGENE         PTSUNNY   53  46  77 S10       30.42F
$$

ORZ021-028-281800-
SOUTHWEST OREGON


CITY           SKY/WX    TMP DP  RH WIND       PRES   REMARKS
NORTH BEND     MOSUNNY   54  52  94 S6        30.44R
BROOKINGS      CLOUDY    51  51 100 CALM      30.39F
ROSEBURG       CLOUDY    49  43  80 CALM      30.44S
SEXTON SUMMIT  PTSUNNY   40  36  86 E5        30.36S
MEDFORD        PTSUNNY   50  40  68 CALM      30.43R
$$

ORZ014>016-041-281800-
COLUMBIA GORGE


CITY           SKY/WX    TMP DP  RH WIND       PRES   REMARKS
TROUTDALE      CLOUDY    55  45  68 SW10      30.38R
THE DALLES     PTSUNNY   54  42  64 NW14G22   30.31R
$$

ORZ029>031-041-044-049-050-061>064-502-503-505>511-281800-
EASTERN OREGON


CITY           SKY/WX    TMP DP  RH WIND       PRES   REMARKS
REDMOND        SUNNY     48  30  49 N6        30.35R
BEND           SUNNY     45  27  49 S8        30.35
PRINEVILLE     SUNNY     46  30  53 SW9       30.35R
KLAMATH FALLS  SUNNY     40  29  64 CALM      30.39R
LAKEVIEW       SUNNY     45  21  39 S5        30.38R
HERMISTON      SUNNY     57  37  47 W26G40    30.27R
PENDLETON      SUNNY     52  37  56 W30G38    30.28R
JOHN DAY       SUNNY     47  32  54 W14       30.31R
MEACHAM        MOSUNNY   44  33  65 MISG      30.27R
LA GRANDE      PTSUNNY   52  30  43 N9        30.26R
BAKER CITY     SUNNY     50  30  46 NW15G22   30.26R
BURNS          SUNNY     47  27  45 W16       30.32R
ROME             N/A     52  17  25 N10       30.32R
ONTARIO        SUNNY     56  32  40 W20G30    30.29R
$$


USA.gov is the U.S. government's official web portal to all federal, state and local government web resources and services.